Location: *
(2.5500°S, 65.9667°W)
Time: 08:54:37
(UTC+00:00)

Cosmos 1726 Rocket - Visible Passes

Search period start: 18 May 2022 00:00
Search period end: 28 May 2022 00:00
Orbit: 603 x 628 km, 82.5° (Epoch: 17 May)

Date Brightness Start Highest point End Pass type
(mag) Time Alt. Az. Time Alt. Az. Time Alt. Az.
18 May 3.7 09:18:44 10° NNW 09:22:57 48° W 09:27:10 10° SSW visible
19 May 6.5 07:59:32 10° ENE 08:01:42 14° E 08:03:52 10° ESE visible
19 May 4.7 09:35:50 10° NW 09:39:12 22° W 09:42:34 10° SW visible
20 May 5.4 08:14:09 10° NNE 08:17:56 29° E 08:21:17 12° SE visible
21 May 3.8 08:29:50 10° N 08:34:09 67° E 08:34:40 60° SE visible
22 May 4.4 08:46:09 10° NNW 08:48:53 34° NW 08:48:53 34° NW visible
23 May 5.8 09:03:10 10° NW 09:03:30 12° NW 09:03:30 12° NW visible
